Volver al catálogo

STARLINK-30514

ActivoComunicacionesVLEO
NORAD 58028·PAYLOAD·🇺🇸 United States

Lanzado Oct 9, 2023 desde Vandenberg Space Force Base

Loading…

Próximos Pases (próximas 24 horas)

TLE

ActualizadoSource: CelesTrak SupGP

Época: Sep 15, 2026, 02:55 UTC

1 58028C 23156A   26258.12201389 -.00009018  00000+0 -26638-3 0  2584
2 58028  53.1578 276.5449 0001293  89.9659   5.2015 15.34400493    19

Sigue STARLINK-30514 en tiempo real con AllMySat

Download on the App Store